Home > Weather > Santa Clara > Past weeks

Flag for Cuba Weather for the Past 2 Weeks in Santa Clara, Cuba

Now
73 °F

Mild.


Feels Like: 77 °F
Forecast: 52 / 72 °F
Wind: 8 mph from Northeast

Location: Cienfuegos - Las Villas

Current Time: Feb 8, 2016 at 12:53:07 PM

Latest Report: Feb 8, 2016 at 11:58 AM


Visibility: N/A

Pressure: 30.12 "Hg

Humidity: 47%

Dew point: 52 °F

Location of Santa ClaraLocation

Historic Weather in Santa Clara — Graph

°F

Santa Clara Temperature Yesterday

Maximum temperature yesterday: 75 °F (at 12:51 PM)
Minimum temperature yesterday: 57 °F (at 11:58 PM)
Average temperature yesterday: 67 °F

High & Low Weather Summary for the Past Weeks

 TemperatureHumidityPressure
High86 °F (Jan 27, 1:50 PM)100% (Jan 27, 1:58 AM)30.21 "Hg (Jan 27, 1:58 AM)
Low50 °F (Jan 25, 4:57 AM)47% (Feb 8, 11:58 AM)29.89 "Hg (Jan 28, 1:58 PM)
Average72 °F81%30.05 "Hg
* Reported Jan 24 11:51 AM — Feb 8 11:58 AM, Santa Clara, Weather by CustomWeather, © 2016

Note: Actual official high and low records may vary slightly from our data, if they occured in-between our weather recording intervals... More about our weather records

Advertising

Santa Clara Weather History for the Previous 24 Hours

 ConditionsComfort  
Time TempWeatherWind HumidityBarometerVisibility
11:58 AM
Mon, Feb 8
73 °FMild.8 mph47%30.12 "HgN/A
10:50 AM70 °FPassing clouds.10 mph50%30.15 "HgN/A
9:50 AM66 °FPassing clouds.8 mph60%30.15 "HgN/A
8:56 AM64 °FScattered clouds.2 mph78%30.15 "HgN/A
7:58 AM54 °FCool.2 mph94%30.12 "HgN/A
6:58 AM50 °FCool.3 mph100%30.12 "HgN/A
5:58 AM50 °FCool.3 mph100%30.09 "HgN/A
4:58 AM50 °FCool.5 mph94%30.07 "HgN/A
3:58 AM52 °FCool.5 mph94%30.07 "HgN/A
2:58 AM52 °FCool.5 mph94%30.09 "HgN/A
1:58 AM54 °FCool.5 mph94%30.09 "HgN/A
12:58 AM55 °FCool.5 mph94%30.09 "HgN/A
11:58 PM
Sun, Feb 7
57 °FCool.3 mph88%30.12 "HgN/A
10:58 PM59 °FCool.6 mph88%30.12 "HgN/A
9:58 PM59 °FCool.6 mph88%30.12 "HgN/A
8:58 PM59 °FCool.7 mph88%30.09 "HgN/A
7:58 PM61 °FCool.7 mph83%30.09 "HgN/A
6:58 PM63 °FMild.7 mph83%30.07 "HgN/A
5:58 PM66 °FMild.8 mph73%30.07 "HgN/A
4:50 PM68 °FPartly sunny.15 mph69%30.07 "Hg6 mi
3:50 PM70 °FPartly sunny.17 mph64%30.04 "Hg6 mi
2:50 PM70 °FPartly sunny.17 mph69%30.04 "Hg5 mi
1:50 PM72 °FScattered clouds.17 mph73%30.04 "HgN/A
12:51 PM75 °FBroken clouds.5 mph69%30.04 "HgN/A
Weather by CustomWeather, © 2016

See weather overviewHow to use our weather pages